Location: College Rock
(37.2713°N, 119.1740°W)
Time: 12:49:26
(UTC+00:00)

Cosmos 1703 - Pass Details

Date: 29 October 2020
Orbit: 525 x 538 km, 82.5° (Epoch: 01 December)

Event Time Altitude Azimuth Distance (km) Brightness Sun altitude
Rises 13:45:27 0° 188° (S) 2,642 6.9 -7.3°
Reaches altitude 10° 13:47:34 10° 189° (S) 1,759 5.9 -6.9°
Maximum altitude 13:51:26 81° 277° (W) 537 3.2 -6.1°
Drops below altitude 10° 13:55:20 10° 5° (N) 1,778 5.8 -5.4°
Sets 13:57:30 0° 6° (N) 2,674 6.8 -4.9°
